Regional Weather Roundup
Issued by NWS

Home | Current Version | Previous Version | Text Only | Print | Product List | Glossary On
Versions: 1 2 3 4 5 6 7 8 9 10 11 12 13 14 15 16 17 18 19 20 21 22 23 24 25 26 27 28 29 30 31 32 33 34 35 36 37 38 39 40 41 42 43 44 45 46 47 48 49 50
000
ASUS43 KTOP 221708
RWRKS

WEATHER ROUNDUP FOR KANSAS
NATIONAL WEATHER SERVICE GOODLAND KS
1200 PM CDT MON SEP 22 2014

NOTE:  "FAIR" INDICATES FEW OR NO CLOUDS BELOW 12,000 FEET WITH NO
SIGNIFICANT WEATHER AND/OR OBSTRUCTIONS TO VISIBILITY.

KSZ001>006-013>018-027>032-041>047-221800-
NORTHWEST KANSAS

CITY           SKY/WX    TMP DP  RH WIND       PRES   REMARKS
GOODLAND       MOSUNNY   73  44  35 S26G37    30.24F
HAYS           SUNNY     72  48  43 S10G21    30.31F
HILL CITY      LGT RAIN  72  45  37 S12G22    30.29F
RUSSELL        MOSUNNY   70  49  47 S15       30.30F
$$

KSZ061>065-074>080-084>089-221800-
SOUTHWEST KANSAS

CITY           SKY/WX    TMP DP  RH WIND       PRES   REMARKS
DODGE CITY     SUNNY     72  42  34 S16       30.32F
ELKHART          N/A     69  47  45 SE22        N/A
GARDEN CITY    PTSUNNY   71  42  35 S21G28    30.30F
GREAT BEND     SUNNY     72  46  40 S13G18    30.32S
LIBERAL        CLOUDY    70  43  37 S13G20    30.34S
PRATT          SUNNY     72  41  33 S12       30.33S
$$

KSZ066>073-081>083-090>101-221800-
SOUTHEAST KANSAS

CITY           SKY/WX    TMP DP  RH WIND       PRES   REMARKS
CHANUTE        SUNNY     70  50  49 CALM      30.32S
COFFEYVILLE    SUNNY     69  50  50 VRB5      30.31S
HUTCHINSON     MOSUNNY   73  47  39 E10       30.32F
MEDICINE LODGE   N/A     72  46  39 SE8G17    30.31F
NEWTON         MOSUNNY   68  46  45 S6        30.35S
PARSONS        SUNNY     70  51  51 MISG      30.32F
WICHITA INTL   PTSUNNY   73  44  35 SE9       30.31F
WICHITA JABRA  MOSUNNY   70  45  40 S7        30.31F
WICHITA MCCONL MOSUNNY   72  43  35 VRB3      30.32F
WINFIELD       SUNNY     70  50  49 E8        30.32F
$$

KSZ007>012-019>026-033>040-048>060-102>105-221800-
NORTHEAST KANSAS

CITY           SKY/WX    TMP DP  RH WIND       PRES   REMARKS
CONCORDIA      MOSUNNY   68  51  54 S9        30.32F
EMPORIA        SUNNY     68  49  50 SE7       30.32F
LAWRENCE       SUNNY     69  49  48 VRB5      30.31F
MANHATTAN      SUNNY     71  49  45 S6        30.32F
MARYSVILLE     SUNNY     68  50  52 SW7       30.31F
OLATHE IND     SUNNY     68  49  50 NE7       30.32F
OLATHE EXE     SUNNY     68  51  54 VRB3      30.31F
SALINA         SUNNY     71  48  43 S6        30.32F
TOPEKA BILLARD SUNNY     70  50  49 S5        30.32F
TOPEKA FORBES  SUNNY     70  49  47 VRB3      30.31F
$$



USA.gov is the U.S. government's official web portal to all federal, state and local government web resources and services.